[[{"header":{"parameterUnit":"m.s-1","parameterCategory":1,"la1":30.2991,"la2":30.254,"lo1":-89.0895,"lo2":-89.0444,"dy":0.0017,"dx":0.0017,"nx":28,"ny":28,"refTime":"2024-08-12T09:00:00:Z","depth":0,"parameterNumber":2,"parameterNumberName":"U-component_of_WINDS"},"data":[0,0,0,0,0,0,0,0,0,0,0,0,0,0,0,0,0,0,0,0,0,0,0,0,0,0,0,0,0,0,0,0,0,0,0,0,0,0,0,0,0,0,0,0,0,0,0,0,0,0,0,0,0,0,0,0,0,0,4.3211,4.321,0,4.3193,4.3193,4.3193,4.3084,4.3081,4.3079,4.3076,4.3059,4.3061,4.3063,0,0,0,0,0,0,0,0,0,0,0,0,0,4.3151,4.3152,4.3211,4.321,4.321,4.3193,4.3193,4.3193,4.3085,4.3081,4.3078,4.3075,4.3058,4.3061,4.3063,0,0,0,0,0,0,0,0,0,0,0,0,0,4.316,4.3153,4.3211,4.3154,4.3149,4.3193,4.3193,4.3193,4.3085,4.3081,4.3077,4.3074,4.3058,4.306,4.3063,4.3161,0,0,4.3073,4.3074,0,0,0,0,0,0,0,0,4.3159,4.3162,4.3163,4.3158,4.3152,4.3137,4.3166,4.3182,4.3086,4.3109,4.3076,4.3072,4.3088,4.3088,4.3094,4.316,4.3159,4.3073,4.3075,4.3076,4.3077,0,0,0,0,0,0,0,4.3159,4.3162,4.3204,4.3163,4.3157,4.313,4.3127,4.3168,4.3121,4.3107,4.3099,4.3099,4.3084,4.3091,4.3093,4.3159,4.3073,4.3075,4.3077,4.3078,4.3306,4.331,0,0,0,0,0,0,4.3166,4.3162,4.3204,4.3203,4.3146,4.3134,4.3131,4.3146,4.312,4.3113,4.3102,4.3094,4.3088,4.3089,4.3092,4.3204,4.3076,4.3079,4.308,4.3302,4.3307,4.3312,0,0,0,0,0,0,4.3165,4.3171,4.3205,4.3181,4.3183,4.314,4.3157,4.3148,4.3154,4.3117,4.3108,4.3117,4.3085,4.3087,4.3145,4.3202,4.308,4.3083,4.3297,4.3303,4.3309,4.3431,0,0,0,0,0,0,4.3164,4.3171,4.3207,4.3182,4.3185,4.3258,4.3161,4.315,4.3159,4.3148,4.3129,4.3122,4.3082,4.3141,4.3148,4.3204,4.3085,4.3291,4.33,4.3307,4.3421,4.3441,4.3457,0,0,0,0,0,4.3162,4.3242,4.321,4.3215,4.3229,4.3262,4.3263,4.3216,4.3165,4.3201,4.3177,4.3122,4.3195,4.3148,4.3154,4.3213,4.3288,4.3297,4.3307,4.3413,4.3437,4.3456,0,0,0,0,0,0,4.3274,4.3238,4.3201,4.3275,4.3273,4.3243,4.3287,4.3242,4.3254,4.3243,4.3184,4.3181,4.3247,4.3236,4.3183,4.3306,4.3232,4.3244,4.3311,4.3333,4.335,4.3351,4.3088,0,0,0,0,0,4.3308,4.3337,4.3304,4.3373,4.3373,4.3331,4.3344,4.3308,4.3302,4.3301,4.3281,4.3278,4.33,4.3316,4.3335,4.342,4.3414,4.3464,4.3481,4.3496,4.3506,4.3551,4.3572,4.3343,4.3343,4.3343,0,0,4.3377,4.3361,4.3383,4.3395,4.3388,4.3421,4.3331,4.3368,4.3392,4.3306,4.3359,4.3345,4.3338,4.3411,4.3441,4.3403,4.3569,4.3508,4.352,4.3522,4.3563,4.3585,4.3604,4.3349,4.3348,4.3347,0,0,4.3519,4.351,4.3566,4.3562,4.3554,4.3526,4.354,4.3518,4.3506,4.3558,4.3495,4.3522,4.3562,4.356,4.3564,4.3709,4.3658,4.3716,4.3808,4.3853,4.3871,4.3887,4.3938,4.3957,4.3727,4.3727,4.3727,0,4.3606,4.3651,4.3601,4.3643,4.3651,4.3576,4.3633,4.3632,4.363,4.3637,4.3595,4.3644,4.3634,4.3704,4.374,4.3746,4.376,4.3717,4.3872,4.3888,4.3902,4.395,4.3969,4.3734,4.3733,4.3733,4.3732,0,4.3759,4.3792,4.3839,4.384,4.3852,4.3902,4.3859,4.3879,4.3843,4.382,4.3875,4.3861,4.3875,4.389,4.3855,4.3956,4.3933,4.3883,4.3806,4.3931,4.3976,4.3994,4.3744,4.3742,4.374,4.3738,0,0,4.3968,4.3943,4.396,4.396,4.3947,4.3972,4.4019,4.4034,4.4051,4.4054,4.4092,4.4128,4.4082,4.4087,4.4051,4.4091,4.4206,4.4035,4.4034,4.4067,4.4317,4.4355,4.4377,4.4174,4.4177,4.418,4.4318,0,4.4104,4.4182,4.4139,4.4224,4.4254,4.4185,4.4226,4.4223,4.4203,4.4226,4.4204,4.4231,4.4168,4.4171,4.4207,4.4185,4.4255,4.4174,4.4208,4.421,4.4211,4.44,4.4439,4.457,4.4335,4.4338,4.434,0,4.4272,4.4283,4.4371,4.4353,4.4364,4.4402,4.4412,4.4435,4.4431,4.4414,4.4421,4.4376,4.4422,4.4348,4.441,4.4356,4.4368,4.4359,4.4363,4.4363,4.4282,4.4405,4.461,4.463,4.4367,4.4365,4.4363,0,4.4416,4.4452,4.4509,4.4512,4.4493,4.4521,4.4514,4.4506,4.4518,4.4528,4.4535,4.455,4.4559,4.4572,4.4533,4.4483,4.46,4.4523,4.4587,4.4588,4.4613,4.4612,4.4823,4.4624,4.4623,4.4623,4.4622,0,4.4572,4.4628,4.4574,4.4609,4.467,4.4621,4.4683,4.4669,4.4663,4.4694,4.4636,4.4667,4.4614,4.464,4.461,4.4666,4.4671,4.4658,4.4649,4.4663,4.4664,4.4668,4.4658,4.4628,4.4627,4.4626,4.4625,0,4.4742,4.4708,4.4765,4.4744,4.474,4.4786,4.4767,4.4799,4.4776,4.4817,4.4824,4.4788,4.4816,4.4779,4.4802,4.4782,4.4859,4.4837,4.486,4.4854,4.4919,4.4914,4.514,4.5167,4.4951,4.4953,4.4955,0,4.4842,4.4884,4.4867,4.4885,4.4882,4.491,4.4922,4.4877,4.4892,4.4891,4.4923,4.4946,4.4962,4.5009,4.4986,4.5004,4.4981,4.506,4.4984,4.4996,4.4982,4.4979,4.4983,4.5074,4.5077,4.5079,4.5081,0,4.5025,4.5007,4.5027,4.5042,4.5059,4.5068,4.5074,4.5091,4.5043,4.5064,4.5091,4.5104,4.5129,4.5152,4.5165,4.5158,4.5112,4.5105,4.5121,4.5134,4.5146,4.514,4.4902,4.51,4.5098,4.5097,4.5096,4.5095,4.5163,4.5197,4.5191,4.5216,4.5215,4.5222,4.5251,4.5233,4.5255,4.5272,4.5244,4.5279,4.5275,4.5287,4.5286,4.5313,4.5279,4.5302,4.5308,4.5314,4.5324,4.5143,4.5315,4.5315,4.5314,4.5314,4.5313,0,4.5342,4.5335,4.5358,4.5368,4.5388,4.5344,4.5348,4.5368,4.54,4.54,4.5417,4.545,4.5473,4.5452,4.5471,4.5497,4.5476,4.5503,4.55,4.55,4.5353,4.5337,4.552,4.552,4.552,4.552,4.552,4.552,4.5437,4.5493,4.5474,4.553,4.5522,4.5557,4.5563,4.5569,4.5569,4.5608,4.5627,4.5614,4.5606,4.5624,4.5644,4.5637,4.5646,4.5681,4.5667,4.553,4.551,4.5491,4.5475,4.5684,4.5684,4.5811,4.5812,4.5813]},{"header":{"parameterUnit":"m.s-1","parameterCategory":1,"la1":30.2991,"la2":30.254,"lo1":-89.0895,"lo2":-89.0444,"dy":0.0017,"dx":0.0017,"nx":28,"ny":28,"refTime":"2024-08-12T09:00:00:Z","depth":0,"parameterNumber":3,"parameterNumberName":"V-component_of_WINDS"},"data":[0,0,0,0,0,0,0,0,0,0,0,0,0,0,0,0,0,0,0,0,0,0,0,0,0,0,0,0,0,0,0,0,0,0,0,0,0,0,0,0,0,0,0,0,0,0,0,0,0,0,0,0,0,0,0,0,0,0,2.2828,2.283,0,2.3034,2.3036,2.3038,2.3059,2.3056,2.3054,2.3052,2.3261,2.3269,2.3276,0,0,0,0,0,0,0,0,0,0,0,0,0,2.2451,2.2458,2.2828,2.283,2.2833,2.3033,2.3036,2.3039,2.3059,2.3056,2.3054,2.3051,2.3259,2.3268,2.3277,0,0,0,0,0,0,0,0,0,0,0,0,0,2.2631,2.246,2.2827,2.2867,2.2873,2.3033,2.3036,2.304,2.306,2.3056,2.3053,2.305,2.3256,2.3267,2.3278,2.3412,0,0,2.3312,2.3317,0,0,0,0,0,0,0,0,2.2621,2.2645,2.2859,2.2865,2.2871,2.3017,2.298,2.3164,2.306,2.2989,2.3052,2.3049,2.3182,2.32,2.3245,2.3421,2.343,2.3313,2.332,2.3325,2.3328,0,0,0,0,0,0,0,2.2609,2.2637,2.2909,2.2862,2.2869,2.2874,2.2896,2.3015,2.3101,2.2995,2.2997,2.3021,2.3185,2.3234,2.325,2.3433,2.3313,2.3323,2.333,2.3335,2.3731,2.3735,0,0,0,0,0,0,2.2589,2.2626,2.2902,2.2915,2.2736,2.2884,2.2908,2.2973,2.31,2.3116,2.3023,2.3021,2.3216,2.3237,2.3258,2.3425,2.3325,2.3336,2.3342,2.3728,2.3732,2.3736,0,0,0,0,0,0,2.2581,2.2613,2.2894,2.2771,2.2807,2.2894,2.2966,2.2979,2.3028,2.3121,2.3137,2.3058,2.3215,2.3242,2.3374,2.3432,2.3341,2.3351,2.3723,2.3729,2.3734,2.3758,0,0,0,0,0,0,2.257,2.261,2.2662,2.2772,2.2814,2.3008,2.297,2.2986,2.3048,2.3047,2.3158,2.3173,2.3214,2.3357,2.3385,2.3446,2.336,2.3718,2.3726,2.3732,2.3752,2.3764,2.3773,0,0,0,0,0,2.2556,2.266,2.2665,2.2698,2.2881,2.3011,2.3035,2.3081,2.3052,2.3106,2.3165,2.3169,2.342,2.337,2.3402,2.3467,2.3715,2.3724,2.3732,2.3748,2.3761,2.3773,0,0,0,0,0,0,2.2554,2.2675,2.2682,2.2824,2.2907,2.3014,2.3082,2.3093,2.3186,2.3181,2.3233,2.3258,2.3389,2.3441,2.3382,2.3604,2.3565,2.358,2.3566,2.358,2.359,2.3576,2.3369,0,0,0,0,0,2.257,2.2666,2.2766,2.2882,2.2923,2.2996,2.3054,2.3082,2.317,2.3205,2.3275,2.3359,2.3457,2.3521,2.3616,2.3759,2.3784,2.3819,2.383,2.3838,2.3851,2.3933,2.395,2.3764,2.3764,2.3764,0,0,2.2604,2.2682,2.2739,2.2884,2.2951,2.305,2.3025,2.3129,2.3203,2.3221,2.3351,2.3404,2.3502,2.3641,2.3705,2.3688,2.3908,2.3849,2.3855,2.3864,2.3943,2.3961,2.3976,2.377,2.3769,2.3768,0,0,2.2717,2.2785,2.289,2.2959,2.3062,2.3109,2.3134,2.324,2.3277,2.3408,2.3424,2.3511,2.3678,2.3748,2.3806,2.3945,2.3953,2.3974,2.403,2.4109,2.4123,2.4137,2.4189,2.4206,2.3987,2.3987,2.3987,0,2.2747,2.2896,2.2942,2.3048,2.3112,2.3132,2.324,2.3303,2.3432,2.3475,2.3454,2.3666,2.3733,2.3889,2.3923,2.3968,2.3999,2.3963,2.4118,2.4131,2.4145,2.4195,2.4214,2.3989,2.3989,2.3989,2.3988,0,2.2928,2.3032,2.3104,2.3229,2.33,2.3406,2.3469,2.3535,2.3557,2.3606,2.374,2.3821,2.3934,2.3972,2.3994,2.4132,2.4119,2.4107,2.4069,2.4164,2.4212,2.4231,2.3992,2.3991,2.3991,2.399,0,0,2.3047,2.3197,2.3223,2.3281,2.3396,2.3477,2.3583,2.3694,2.3751,2.3838,2.393,2.4071,2.4062,2.4126,2.4156,2.4224,2.4333,2.4205,2.4208,2.4228,2.4492,2.4502,2.4523,2.4337,2.4341,2.4344,2.4484,0,2.3175,2.3367,2.3412,2.3576,2.3673,2.3694,2.3787,2.3868,2.3916,2.4005,2.4058,2.4159,2.4137,2.4177,2.4245,2.4305,2.4387,2.4295,2.4424,2.4428,2.4401,2.4548,2.4559,2.4688,2.4503,2.4506,2.4509,0,2.3351,2.3444,2.3619,2.3723,2.3765,2.3848,2.3954,2.4039,2.413,2.4161,2.4234,2.4257,2.4368,2.4322,2.4477,2.4414,2.4468,2.4505,2.4511,2.4527,2.4476,2.4571,2.473,2.475,2.4538,2.4536,2.4534,0,2.3424,2.3592,2.3719,2.3767,2.3891,2.3949,2.4003,2.4092,2.4156,2.4248,2.4291,2.4394,2.4451,2.453,2.4581,2.4542,2.4732,2.469,2.4761,2.476,2.4803,2.48,2.4976,2.4833,2.4833,2.4832,2.4832,0,2.3564,2.367,2.3754,2.3832,2.3952,2.4002,2.4119,2.4173,2.4252,2.4341,2.4363,2.4446,2.4506,2.4597,2.4636,2.4759,2.4784,2.4812,2.4822,2.4812,2.4809,2.4851,2.4844,2.4838,2.4836,2.4835,2.4835,0,2.3666,2.3726,2.3866,2.3972,2.4001,2.4085,2.4176,2.4252,2.4301,2.4413,2.4443,2.4519,2.4628,2.4685,2.4819,2.4846,2.4985,2.4988,2.4955,2.4959,2.5029,2.5022,2.524,2.5272,2.5105,2.5107,2.5108,0,2.3753,2.3836,2.3951,2.4013,2.4069,2.4168,2.4234,2.4286,2.4354,2.4465,2.4529,2.4638,2.4729,2.4901,2.4969,2.5072,2.5079,2.5148,2.5095,2.5083,2.5083,2.5079,2.5088,2.5159,2.516,2.5161,2.5162,0,2.3902,2.3928,2.4023,2.413,2.4208,2.4294,2.4379,2.4428,2.4494,2.4569,2.4681,2.4751,2.489,2.4999,2.5107,2.5162,2.5174,2.5178,2.5201,2.5193,2.5171,2.5186,2.4983,2.5174,2.5173,2.5172,2.5171,2.5171,2.4001,2.4077,2.417,2.4276,2.4345,2.4424,2.4502,2.4561,2.4656,2.4774,2.4798,2.4917,2.5006,2.5154,2.5212,2.5305,2.5291,2.5322,2.5331,2.5339,2.5343,2.5154,2.5324,2.5324,2.5324,2.5323,2.5323,0,2.4154,2.4215,2.4312,2.4431,2.4514,2.4518,2.4612,2.4681,2.4786,2.4869,2.4958,2.5087,2.5193,2.5268,2.5376,2.5436,2.5444,2.5463,2.546,2.5473,2.5348,2.532,2.5455,2.5455,2.5455,2.5455,2.5455,2.5455,2.4243,2.4372,2.4408,2.4571,2.4632,2.4749,2.4803,2.4876,2.4943,2.5086,2.5175,2.5224,2.5304,2.5418,2.5515,2.5535,2.5574,2.5593,2.5613,2.5496,2.5482,2.5469,2.5442,2.56,2.5601,2.573,2.5732,2.5732]}]]